Kerkyra, Greece

5:21 AM EET on November 21, 2017 (GMT +0200)
Ioannis Kapodistrias

Weather History for LGKR - November, 2012

Change the Weather History Date:

Monday, November 26, 2012

  Actual Average Record
Temperature  
Mean Temperature 58 °F -  
Max Temperature 67 °F 61 °F 69 °F (2006)
Min Temperature 48 °F 45 °F 30 °F (2004)
Degree Days  
Heating Degree Days 8    
Growing Degree Days 8 (Base 50)    
Moisture  
Dew Point 54 °F    
Average Humidity 90    
Maximum Humidity 100    
Minimum Humidity 61    
Precipitation  
Precipitation 0.00 in 0.24 in - ()
Sea Level Pressure  
Sea Level Pressure 30.12 in    
Wind  
Wind Speed 1 mph ()    
Max Wind Speed 4 mph    
Max Gust Speed -    
Visibility 6.2 miles    
Events      
Averages and records for this station are not official NWS values.
T = Trace of Precipitation, MM = Missing Value Source: Averaged Metar Reports

Daily Weather History Graph

Daily Weather History Graph

Search for Another Location

Airport or City:

Trip Planner

Search our weather history database for the weather conditions in past years. The results will help you decide how hot, cold, wet, or windy it might be!

Date:

Astronomy

Nov. 26, 2012 Rise Set
Actual Time 7:36 AM EET 5:18 PM EET
Civil Twilight 7:07 AM EET 5:47 PM EET
Nautical Twilight 6:34 AM EET 6:20 PM EET
Astronomical Twilight 6:01 AM EET 6:53 PM EET
Moon 3:59 PM EET (11/26) 5:30 AM EET (11/26)
Length of Visible Light 10h 40m
Length of Day
9h 41m
Waxing Gibbous, 96% of the Moon is Illuminated
Nov 26
Waxing Gibbous
Nov 28
Full
Dec 6
Last Quarter
Dec 13
New
Dec 20
First Quarter

Hourly Weather History & Observations

Time (EET) Temp. Dew Point Humidity Pressure Visibility Wind Dir Wind Speed Gust Speed Precip Events Conditions
12:20 AM 53.6 °F 53.6 °F 100% 30.15 in 6.2 mi West 3.5 mph - N/A   Partly Cloudy
12:50 AM 51.8 °F 51.8 °F 100% 30.15 in 6.2 mi West 3.5 mph - N/A   Partly Cloudy
1:20 AM 51.8 °F 51.8 °F 100% 30.15 in 6.2 mi West 3.5 mph - N/A   Partly Cloudy
1:50 AM 51.8 °F 51.8 °F 100% 30.15 in 6.2 mi WNW 3.5 mph - N/A   Scattered Clouds
2:00 AM 52 °F 52 °F 99% 30.16 in 6 mi WNW 3.5 mph - -   Partly Cloudy
2:20 AM 51.8 °F 51.8 °F 100% 30.15 in 6.2 mi WNW 3.5 mph - N/A   Scattered Clouds
2:50 AM 51.8 °F 51.8 °F 100% 30.15 in 6.2 mi WNW 3.5 mph - N/A   Scattered Clouds
3:20 AM 51.8 °F 51.8 °F 100% 30.15 in 6.2 mi WNW 3.5 mph - N/A   Scattered Clouds
3:50 AM 51.8 °F 51.8 °F 100% 30.15 in 6.2 mi Calm Calm - N/A   Scattered Clouds
4:20 AM 51.8 °F 51.8 °F 100% 30.15 in 6.2 mi Calm Calm - N/A   Scattered Clouds
4:50 AM 50.0 °F 50.0 °F 100% 30.15 in 6.2 mi Calm Calm - N/A   Scattered Clouds
5:20 AM 50.0 °F 50.0 °F 100% 30.15 in 6.2 mi Calm Calm - N/A   Scattered Clouds
5:50 AM 50.0 °F 50.0 °F 100% 30.15 in 6.2 mi Calm Calm - N/A   Scattered Clouds
6:20 AM 50.0 °F 50.0 °F 100% 30.15 in 6.2 mi Calm Calm - N/A   Scattered Clouds
6:50 AM 50.0 °F 50.0 °F 100% 30.15 in 6.2 mi Calm Calm - N/A   Scattered Clouds
7:20 AM 50.0 °F 50.0 °F 100% 30.15 in 6.2 mi Calm Calm - N/A   Scattered Clouds
7:50 AM 48.2 °F 48.2 °F 100% 30.12 in 6.2 mi Calm Calm - N/A   Partly Cloudy
8:00 AM 49 °F 49 °F 98% 30.15 in 6 mi Calm Calm - -   Scattered Clouds
8:20 AM 48.2 °F 48.2 °F 100% 30.12 in 6.2 mi Calm Calm - N/A   Partly Cloudy
8:50 AM 50.0 °F 50.0 °F 100% 30.15 in 6.2 mi Calm Calm - N/A   Partly Cloudy
9:20 AM 53.6 °F 51.8 °F 94% 30.15 in 6.2 mi Calm Calm - N/A   Partly Cloudy
9:50 AM 57.2 °F 51.8 °F 82% 30.15 in 6.2 mi Calm Calm - N/A   Partly Cloudy
10:20 AM 59.0 °F 53.6 °F 82% 30.15 in 6.2 mi Calm Calm - N/A   Partly Cloudy
10:50 AM 60.8 °F 51.8 °F 72% 30.15 in 6.2 mi ENE 3.5 mph - N/A   Partly Cloudy
11:20 AM 62.6 °F 53.6 °F 72% 30.15 in 6.2 mi ENE 3.5 mph - N/A   Partly Cloudy
11:50 AM 64.4 °F 57.2 °F 77% 30.15 in 6.2 mi Calm Calm - N/A   Partly Cloudy
12:20 PM 66.2 °F 59.0 °F 78% 30.15 in 6.2 mi Calm Calm - N/A   Partly Cloudy
12:50 PM 68.0 °F 59.0 °F 73% 30.15 in 6.2 mi Calm Calm - N/A   Partly Cloudy
1:20 PM 68.0 °F 59.0 °F 73% 30.12 in 6.2 mi East 3.5 mph - N/A   Partly Cloudy
1:50 PM 68.0 °F 57.2 °F 68% 30.12 in 6.2 mi East 3.5 mph - N/A   Partly Cloudy
2:00 PM 68 °F 58 °F 61% 30.13 in 9 mi East 3.5 mph - -   Scattered Clouds
2:20 PM 68.0 °F 57.2 °F 68% 30.12 in 6.2 mi East 3.5 mph - N/A   Partly Cloudy
2:50 PM 68.0 °F 57.2 °F 68% 30.09 in 6.2 mi Calm Calm - N/A   Scattered Clouds
3:20 PM 68.0 °F 57.2 °F 68% 30.09 in 6.2 mi Calm Calm - N/A   Scattered Clouds
3:50 PM 66.2 °F 59.0 °F 78% 30.09 in 6.2 mi Calm Calm - N/A   Scattered Clouds
4:20 PM 66.2 °F 59.0 °F 78% 30.09 in 6.2 mi Calm Calm - N/A   Scattered Clouds
4:50 PM 66.2 °F 57.2 °F 73% 30.09 in 6.2 mi Calm Calm - N/A   Partly Cloudy
5:20 PM 64.4 °F 57.2 °F 77% 30.09 in 6.2 mi Calm Calm - N/A   Partly Cloudy
5:50 PM 60.8 °F 57.2 °F 88% 30.09 in 6.2 mi Calm Calm - N/A   Partly Cloudy
6:20 PM 59.0 °F 57.2 °F 94% 30.09 in 6.2 mi Calm Calm - N/A   Partly Cloudy
6:50 PM 57.2 °F 55.4 °F 94% 30.09 in 6.2 mi Calm Calm - N/A   Partly Cloudy
7:20 PM 55.4 °F 55.4 °F 100% 30.09 in 6.2 mi Calm Calm - N/A   Partly Cloudy
7:50 PM 55.4 °F 53.6 °F 94% 30.09 in 6.2 mi Calm Calm - N/A   Partly Cloudy
8:00 PM 55 °F 54 °F 96% 30.10 in 6 mi Calm Calm - -   Scattered Clouds
8:20 PM 55.4 °F 53.6 °F 94% 30.09 in 6.2 mi Calm Calm - N/A   Partly Cloudy
8:50 PM 55.4 °F 53.6 °F 94% 30.09 in 6.2 mi Calm Calm - N/A   Partly Cloudy
9:20 PM 53.6 °F 53.6 °F 100% 30.09 in 6.2 mi Calm Calm - N/A   Partly Cloudy
9:50 PM 53.6 °F 51.8 °F 94% 30.09 in 6.2 mi Calm Calm - N/A   Partly Cloudy
10:20 PM 51.8 °F 50.0 °F 94% 30.09 in 6.2 mi Calm Calm - N/A   Partly Cloudy
10:50 PM 51.8 °F 51.8 °F 100% 30.09 in 6.2 mi Calm Calm - N/A   Partly Cloudy
11:20 PM 51.8 °F 51.8 °F 100% 30.09 in 6.2 mi Calm Calm - N/A   Partly Cloudy
11:50 PM 51.8 °F 51.8 °F 100% 30.09 in 6.2 mi Calm Calm - N/A   Partly Cloudy